Presure
236 220 204 206 222 229 227 224 221 227 221 225 222 228 216 228 216 203 208 212 207 206 220 212 216 216 202 205 209 202 202 205 209 211 202 199 211 218 253 248 244 245 227
244 237 229 235 233 248 234 231 239 245 250 246 247 239 227 232 220 220 209 210 208 204 200 212 209 218 205 215 202 206 193 204 199 213 210 143 235 238 258 237 239 229 227
230 226 229 233 140 214 244 247 245 248 252 246 246 240 242 238 235 227 223 231 219 216 212 206 201 198 209 211 209 213 205 207 210 204 259 257 250 240 233 234 236 242 247
233 215 260 247 243 239 244 247 249 249 251 253 256 268 274 271 273 282 285 258 238 234 232 222 218 218 220 216 217 223 225 225 245 257 244 246 241 239 205 238 252 244 242
263 260 252 210 250 253 256 115 253 259 265 283 297 299 289 305 296 293 298 301 301 290 279 274 282 269 261 260 262 260 255 250 248 251 242 240 240 246 253 250 238 245 246
259 259 259 252 260 269 271 271 280 298 269 268 321 369 353 403 404 410 413 328 281 319 287 287 281 282 279 288 288 280 280 255 256 250 248 247 241 246 240 235 242 245 240
260 267 249 227 271 270 266 269 296 324 331 380 351 350 361 369 355 374 385 395 437 329 299 304 284 286 278 269 266 262 261 257 247 245 239 243 240 240 245 249 239 240 248
262 190 286 95 256 273 286 326 308 330 377 356 327 332 330 327 324 326 387 376 381 372 319 298 291 282 271 265 255 260 254 250 262 255 251 246 243 247 244 239 243 240 236
270 277 284 281 321 312 319 316 334 331 351 336 311 319 326 315 315 321 363 385 349 365 324 332 312 300 292 277 283 297 289 274 265 250 248 249 242 241 239 238 244 235 242
284 283 282 308 310 309 307 310 328 314 345 320 303 305 301 292 298 318 331 348 343 321 306 302 279 273 265 264 255 274 257 247 252 255 253 252 248 259 248 234 229 240 238
277 305 299 298 297 305 316 319 321 313 335 318 293 298 295 290 290 322 305 321 304 296 292 277 275 272 267 258 258 275 268 271 266 253 255 252 243 248 242 244 247 242 255
300 295 296 312 299 307 317 315 311 336 321 323 310 278 288 278 328 304 302 344 299 283 277 267 264 274 269 292 285 296 270 260 254 252 248 257 245 247 259 242 248 250 227
296 299 307 311 317 305 306 317 322 321 323 334 305 275 275 273 265 296 289 283 296 282 269 261 271 283 265 263 277 282 245 243 258 246 245 256 263 257 254 250 232 251 250
307 320 319 312 299 298 311 325 349 403 360 336 307 281 273 267 261 269 254 275 273 285 271 259 281 272 266 264 256 259 257 260 262 258 245 255 248 229 237 252 248 243 238
317 308 302 300 292 283 292 356 368 388 410 298 299 292 277 278 269 272 258 252 262 263 251 267 263 255 258 259 257 240 253 252 249 258 252 246 248 251 247 241 240 252 254
199 291 287 300 312 345 329 348 376 398 381 312 313 298 280 282 270 264 276 257 251 248 246 254 252 262 252 248 249 249 248 246 249 248 252 254 245 238 241 250 245 255 281
295 293 298 320 329 329 336 351 368 359 325 297 306 291 285 289 280 268 272 257 253 253 253 251 246 245 249 252 250 250 242 245 245 241 240 241 246 251 256 250 296 276 266
299 307 341 326 327 325 321 356 349 333 315 296 295 281 282 292 289 280 270 268 263 253 251 252 260 263 261 255 254 254 251 250 247 247 248 256 266 270 305 278 298 334 316
345 323 304 305 318 327 321 345 349 336 324 303 302 291 291 283 282 285 282 281 278 268 266 267 262 253 251 252 250 259 263 265 267 274 284 287 290 292 284 335 320 315 295
297 289 283 283 285 294 322 327 322 348 345 307 301 293 293 290 286 282 279 276 278 279 276 274 275 272 276 283 284 281 277 284 313 305 296 302 327 320 312 297 287 288 285
276 273 270 271 271 270 268 273 278 310 321 315 312 309 295 302 303 298 296 295 299 301 301 302 285 284 299 301 308 313 321 330 335 334 327 299 282 280 284 287 291 291 285
268 265 263 264 267 267 265 267 269 270 270 272 271 271 270 269 269 268 292 294 296 306 306 306 306 303 301 298 295 286 283 281 278 282 282 283 283 280 278 280 290 299 301
263 263 261 263 263 263 260 260 264 263 263 265 268 268 273 277 282 287 293 300 301 298 294 289 286 282 280 279 278 279 280 280 280 280 282 285 287 289 290 290 291 292 293
256 258 259 261 258 257 263 260 268 280 274 272 275 280 285 291 309 321 324 325 321 314 313 312 310 308 306 304 302 300 299 298 298 298 297 296 296 296 297 296 295 294 296
260 258 259 258 258 264 266 273 272 268 272 283 279 288 336 344 371 395 385 378 376 374 375 377 379 385 382 345 328 319 314 311 309 306 304 303 302 301 303 306 308 310 311
257 258 262 261 271 271 270 268 264 294 283 280 286 335 383 383 365 354 350 351 364 367 369 371 370 369 367 365 365 359 354 347 343 338 332 329 328 325 323 325 327 326 327
Wind_Speed
87 94 97 99 98 97 99 102 103 106 105 102 101 104 97 97 94 92 91 89 91 89 91 92 92 94 95 96 95 98 92 96 105 113 106 99 105 112 97 100 95 94 96
90 90 93 93 94 91 98 100 100 96 97 105 107 109 106 106 98 100 95 94 94 92 88 99 96 103 95 101 98 104 87 106 101 114 109 56 111 108 92 94 93 94 97
94 95 97 96 50 84 94 96 98 99 101 107 109 111 113 113 110 106 106 109 103 104 104 102 97 96 111 112 111 116 110 110 109 101 108 98 94 96 95 93 94 98 97
93 83 87 89 92 96 98 98 99 101 102 102 101 102 103 105 107 110 109 114 114 113 114 116 116 116 118 116 117 120 119 118 108 98 100 96 95 96 82 93 91 91 93
84 84 86 77 92 92 95 49 101 103 103 102 100 101 101 98 99 102 104 102 101 101 103 106 101 109 110 107 103 100 100 98 96 94 95 93 92 92 89 86 87 88 87
83 84 87 88 91 94 92 96 99 100 93 91 91 76 88 55 54 60 69 91 92 88 93 93 93 92 91 87 84 85 85 91 90 88 88 89 89 85 85 86 86 82 85
83 85 82 73 86 86 87 89 90 88 83 44 51 55 49 47 48 50 53 54 53 80 82 82 83 83 80 77 76 76 77 79 80 82 82 85 85 84 84 82 82 83 84
84 64 86 38 83 86 85 73 77 69 48 43 50 50 43 37 43 45 41 40 48 56 76 76 73 78 74 71 72 73 75 75 72 77 78 81 82 80 79 81 82 82 82
86 87 86 84 71 74 67 66 61 59 53 42 47 44 39 35 36 38 31 34 33 46 53 51 55 56 59 59 55 58 60 65 68 73 75 74 77 79 80 81 82 81 87
87 84 83 73 69 69 67 64 61 52 49 40 44 41 37 40 37 36 32 29 43 40 49 47 60 60 63 61 60 57 64 69 67 66 70 73 75 75 77 81 77 84 84
83 69 71 70 70 67 64 60 58 50 46 41 42 44 37 38 37 39 34 29 44 46 43 53 56 60 65 60 59 62 62 64 66 68 69 71 74 75 77 82 85 84 89
68 70 70 64 62 64 61 59 56 52 46 43 39 39 36 37 23 29 27 31 45 43 50 57 57 60 58 52 55 58 60 63 65 68 69 70 74 77 78 79 82 84 71
68 67 63 62 55 58 61 60 58 51 44 41 37 38 38 37 35 21 18 20 28 43 50 51 53 49 51 51 47 54 60 62 65 67 69 71 69 71 73 77 70 78 77
63 56 58 54 56 59 62 62 62 57 49 40 40 41 40 41 36 32 33 33 37 45 48 48 43 43 47 52 55 55 57 58 60 67 68 70 68 65 69 76 75 75 77
52 47 50 52 56 57 58 57 45 37 30 40 43 42 43 44 43 38 39 38 39 41 43 46 46 49 50 52 53 51 58 57 60 63 67 69 72 72 71 73 76 83 86
36 46 50 54 58 51 50 47 37 19 15 37 42 42 46 46 48 46 45 45 43 41 40 45 47 50 53 53 55 57 59 60 63 66 69 71 68 70 73 81 79 87 83
43 47 48 53 39 40 44 35 2 6 29 35 38 43 44 47 51 49 50 48 47 47 49 51 48 49 54 55 57 58 57 61 64 66 68 70 76 79 84 83 83 83 80
43 45 39 33 31 31 30 17 10 21 33 36 40 43 47 49 48 52 52 52 52 50 51 52 57 61 62 62 62 65 67 69 71 73 76 83 85 86 79 76 75 56 58
36 25 22 21 23 22 23 17 16 24 32 36 41 47 51 52 48 49 49 53 59 59 61 63 62 58 60 63 65 73 77 79 81 81 83 83 80 77 76 62 62 57 54
19 16 14 14 14 16 16 15 14 14 23 29 34 41 51 55 55 56 53 51 56 59 60 60 62 65 70 76 78 76 75 77 79 78 75 77 68 65 60 59 59 57 56
14 13 13 13 14 14 15 14 14 12 16 22 28 33 34 43 50 57 61 64 66 66 67 68 70 71 70 70 70 69 69 67 65 63 60 58 61 61 61 62 62 61 61
15 14 15 16 16 17 17 18 18 19 20 22 26 29 32 35 38 41 46 49 51 55 56 57 58 59 59 60 59 58 59 59 60 61 61 62 63 63 64 65 64 63 64
16 16 16 17 18 19 21 22 23 24 27 29 32 35 38 41 45 48 51 53 55 58 59 60 61 61 62 62 62 63 64 64 64 65 66 66 66 66 67 67 68 67 67
18 17 17 19 21 23 25 27 28 29 32 35 38 40 43 47 50 51 52 55 57 58 60 61 62 63 64 66 67 67 66 66 66 66 66 67 68 68 68 68 69 70 71
17 18 20 22 25 27 29 29 31 33 37 40 43 46 45 45 40 35 36 38 40 41 43 43 44 43 47 59 62 63 64 64 64 65 65 66 67 68 69 69 69 70 71
18 19 22 25 26 28 30 32 35 37 39 43 46 45 36 29 28 28 30 31 29 29 29 29 29 30 32 34 37 41 45 49 52 55 57 58 59 61 63 63 63 63 63
Wind_Direction
275 277 281 281 277 274 275 275 275 272 276 274 273 270 273 270 267 268 266 267 267 268 269 267 270 270 266 269 269 268 272 279 279 279 279 281 282 285 281 280 282 280 285
278 278 277 275 273 273 271 271 271 270 268 268 269 267 269 268 272 270 274 274 272 273 273 273 274 274 273 275 276 279 277 277 276 278 278 285 282 284 280 284 281 285 285
280 280 279 279 275 277 275 274 272 271 271 268 268 269 269 267 267 269 269 265 268 268 266 269 271 271 271 271 271 270 272 274 276 278 279 279 280 281 281 283 283 283 285
275 274 276 274 274 275 274 274 273 274 275 275 276 276 273 270 269 269 267 264 264 263 262 263 265 267 267 268 269 271 272 274 276 273 275 276 278 279 280 280 282 283 284
277 275 274 275 274 275 274 279 273 275 275 277 277 274 273 271 268 267 265 265 263 262 262 262 264 264 266 266 267 267 269 269 271 270 271 274 277 278 280 280 282 281 284
279 280 278 276 279 280 280 280 282 283 280 280 281 280 277 276 274 272 268 261 260 260 259 260 259 261 261 263 262 263 263 264 266 268 270 272 274 277 279 280 282 283 284
282 281 278 280 279 280 281 283 285 287 288 284 277 277 284 283 276 273 264 262 258 251 254 254 256 257 259 260 261 262 262 262 264 266 269 271 274 277 279 281 280 283 286
284 285 285 290 283 285 287 285 286 291 290 276 276 279 277 278 275 274 266 252 256 237 246 250 253 256 258 258 261 260 261 262 261 263 265 267 272 274 275 278 280 282 286
288 289 288 289 286 287 286 288 300 295 290 273 275 277 284 281 279 276 265 249 236 238 241 251 249 248 251 255 260 259 258 259 261 262 264 267 270 271 275 278 281 283 285
289 290 289 286 286 287 290 294 294 292 289 269 273 276 274 270 272 266 269 260 237 225 235 240 245 254 256 259 258 262 258 260 263 264 264 265 268 271 273 276 282 282 284
288 286 287 288 288 288 289 290 290 290 286 268 266 270 273 275 272 255 250 267 218 233 228 241 244 250 254 259 260 260 258 258 260 263 265 266 269 272 274 276 279 283 284
287 288 290 290 287 288 289 291 287 293 279 266 262 262 262 272 267 238 254 250 226 237 227 242 249 250 260 257 256 250 254 259 262 264 268 267 271 274 276 278 280 283 281
289 289 290 289 288 287 289 290 289 285 271 268 250 256 256 266 268 225 227 240 241 224 236 248 251 250 252 258 255 255 264 265 263 266 269 271 271 276 278 280 279 285 288
289 285 286 286 288 291 291 294 294 290 274 255 247 248 249 256 260 250 259 239 241 232 238 253 245 249 254 257 261 261 263 264 262 265 271 272 274 274 278 281 284 286 284
280 287 289 290 292 292 297 305 306 287 273 257 247 238 245 243 252 249 253 256 251 249 257 247 251 259 260 262 264 263 268 266 269 270 272 274 276 279 281 281 283 288 289
284 289 289 294 297 303 303 312 309 281 239 240 238 241 246 244 246 252 247 253 258 259 263 263 267 260 264 267 266 267 269 271 272 273 274 275 278 278 281 285 283 287 291
289 288 295 298 301 305 308 310 284 205 212 238 236 248 248 244 248 253 251 254 260 262 265 265 266 267 266 265 266 268 270 273 274 274 275 277 279 282 284 282 287 286 286
290 296 296 300 306 304 312 289 241 204 217 232 234 250 253 252 251 252 256 258 260 262 265 267 268 268 267 271 273 275 275 274 273 274 275 279 280 280 285 287 289 283 282
298 292 299 313 316 303 310 298 276 232 222 240 235 246 250 261 266 264 263 261 261 264 266 267 269 271 271 272 271 272 272 272 273 278 281 281 282 278 282 283 282 278 280
287 292 300 312 323 329 321 311 305 270 249 259 255 256 258 262 267 272 276 276 277 276 274 273 272 272 275 277 277 276 275 276 276 277 279 280 280 282 280 280 282 283 284
280 280 287 301 309 315 320 325 329 316 283 273 270 267 267 264 265 266 269 271 271 272 272 272 273 274 273 272 272 273 274 275 275 276 277 277 279 280 283 284 285 286 284
268 278 289 298 303 306 309 312 313 310 305 298 293 289 286 283 281 278 274 273 272 270 270 270 271 271 273 274 275 276 277 277 278 279 279 280 281 283 283 283 283 282 281
271 279 289 297 301 304 305 305 308 305 301 299 296 294 292 289 286 282 279 275 273 272 272 272 273 275 275 276 276 277 277 278 279 280 280 281 281 281 281 282 283 284 285
269 284 294 298 300 303 304 304 306 308 305 303 301 300 298 295 290 284 280 276 274 273 273 272 272 272 272 273 274 274 275 276 276 276 277 277 278 280 282 283 283 284 284
279 289 296 300 303 305 307 309 310 308 308 307 306 305 301 295 289 286 283 282 281 280 279 277 276 272 270 270 271 272 273 273 275 276 277 278 279 280 281 281 282 282 282
285 295 301 302 305 307 309 310 311 315 313 312 312 315 312 304 297 292 290 288 289 288 288 286 285 282 279 276 274 271 270 270 272 273 274 275 275 276 278 280 281 282 284